Regional Weather Roundup
Issued by NWS

Home | Current Version | Previous Version | Text Only | Print | Product List | Glossary On
Versions: 1 2 3 4 5 6 7 8 9 10 11 12 13 14 15 16 17 18 19 20 21 22 23 24 25 26 27 28 29 30 31 32 33 34 35 36 37 38 39 40 41 42 43 44 45 46 47 48 49 50
000
ASUS43 KDTX 201610
RWRMI
MICHIGAN HOURLY REGIONAL WEATHER ROUNDUP
NATIONAL WEATHER SERVICE DETROIT/PONTIAC MI
ISSUED BY NATIONAL WEATHER SERVICE GRAND RAPIDS MI
1200 PM EDT SUN MAY 20 2018

NOTE: "FAIR" INDICATES FEW OR NO CLOUDS BELOW 12,000 FEET WITH NO
SIGNIFICANT WEATHER AND/OR OBSTRUCTION TO VISIBILITY.

MIZ047>049-052>055-059>063-066>070-074>076-081>083-201700-
SOUTHEAST LOWER MICHIGAN

CITY           SKY/WX    TMP DP  RH WIND       PRES   REMARKS
ADRIAN         CLOUDY    63  56  78 N6        30.17R
ALMA           CLOUDY    52  48  86 N7        30.20R
ANN ARBOR      CLOUDY    60  55  83 W5        30.16R
BAD AXE        CLOUDY    50  45  83 NE7       30.20S
DETROIT CITY   CLOUDY    61  52  72 N6        30.16R
DETROIT        CLOUDY    63  54  72 CALM      30.16R
FLINT          CLOUDY    56  49  77 N6        30.19R
GROSSE ILE     CLOUDY    60  56  85 CALM      30.16R
HILLSDALE      CLOUDY    61  54  77 NW3       30.17R
HOWELL         CLOUDY    56  52  88 N3        30.19R

CITY           SKY/WX    TMP DP  RH WIND       PRES   REMARKS
JACKSON        CLOUDY    60  54  80 N5        30.18R
LANSING        LGT RAIN  54  49  83 N6        30.20R
MASON          LGT RAIN  56  52  85 N6        30.19R
MONROE         CLOUDY    60  58  93 CALM      30.15S FOG
MT. CLEMENS    CLOUDY    58  58 100 N8        30.15R
PONTIAC        CLOUDY    57  53  86 NW7       30.16R
PORT HOPE        N/A     47  42  83 N9        30.18R
PORT HURON     CLOUDY    54  48  82 NE10      30.18R
TRI CITIES     CLOUDY    53  48  83 NE7       30.21R
YPSILANTI      CLOUDY    65  55  70 CALM      30.17R
$$
MIZ043>046-050>051-056>058-064>065-071>073-077>080-201700-
SOUTHWEST LOWER MICHIGAN

CITY           SKY/WX    TMP DP  RH WIND       PRES   REMARKS
BATTLE CREEK   CLOUDY    59  52  77 NE6       30.18R
BENTON HARBOR  CLOUDY    56  51  84 NW3       30.18R
BIG RAPIDS     CLOUDY    50  44  78 E5        30.20R
COLDWATER      CLOUDY    62  56  82 CALM      30.17R
HOLLAND        CLOUDY    55  48  77 VRB3      30.19R
GRAND RAPIDS   CLOUDY    55  47  74 N3        30.20R
KALAMAZOO      LGT RAIN  62  55  77 NE6       30.17R
MARSHALL       CLOUDY    59  54  85 CALM      30.17R
MOUNT PLEASANT CLOUDY    51  46  84 NE5       30.20R
MUSKEGON       CLOUDY    52  46  80 N7        30.21R
STURGIS        CLOUDY    62  57  82 NE7       30.15F
$$
MIZ016>042-201700-
NORTHERN LOWER MICHIGAN

CITY           SKY/WX    TMP DP  RH WIND       PRES   REMARKS
ALPENA         FAIR      57  45  64 N10       30.20R
BEAVER ISLAND  FAIR      51  39  63 NE7       30.24R
BELLAIRE       FAIR      53  43  67 CALM      30.22R
CADILLAC       FAIR      52  43  72 CALM      30.20R
CHARLEVOIX     FAIR      46  40  81 NW9       30.26R
GAYLORD        FAIR      51  44  77 E5        30.19S
HOUGHTON LAKE  PTSUNNY   53  45  74 SW9       30.20R
MANISTEE       FAIR      55  44  66 NW8       30.21R
OSCODA         FAIR      55  42  63 NE13      30.19R
PELLSTON       PTSUNNY   52  41  66 CALM      30.22S
TRAVERSE CITY  FAIR      49  41  74 NE8       30.23R
LUDINGTON      CLOUDY    51  43  75 CALM      30.21R
$$
MIZ007>008-015-201700-
EASTERN UPPER MICHIGAN

CITY           SKY/WX    TMP DP  RH WIND       PRES   REMARKS
KINROSS        FAIR      52  34  50 VRB6      30.22R
MACKINAC ISLAN FAIR      51  36  56 N3        30.22R
NEWBERRY       FAIR      55  24  30 NE9       30.22R
S. S. MARIE    FAIR      57  30  35 NW5       30.20S
$$
MIZ004>006-011>014-085-201700-
CENTRAL UPPER MICHIGAN

CITY           SKY/WX    TMP DP  RH WIND       PRES   REMARKS
MANISTIQUE     FAIR      55  28  35 E7        30.23R
ESCANABA       FAIR      55  28  35 NE10      30.25R
SAWYER-GWINN   SUNNY     50  23  34 NE12      30.26R
$$
MIZ001>003-009>011-084-201700-
WESTERN UPPER MICHIGAN

CITY           SKY/WX    TMP DP  RH WIND       PRES   REMARKS
IRON MOUNTAIN  FAIR      59  24  26 NE8       30.24R
HOUGHTON       FAIR      57  33  40 MISG      30.26S
COPPER HARBOR    N/A     46  38  73 N16       30.25F
IRONWOOD       FAIR      57  28  33 VRB6      30.28S
$$

ABBREVIATIONS USED IN REMARKS
   TC - TEMPERATURE IN CELSIUS
  WCI - WIND CHILL INDEX
   HX - HEAT INDEX
  VSB - VISIBILITY





USA.gov is the U.S. government's official web portal to all federal, state and local government web resources and services.